作者doraelephant (人妻哆啦象)
站內Baseball
標題[LIVE] 黑豹旗 輔仁中學 VS 彰化高中
時間Sat Nov 29 15:00:58 2014
15:30 嘉義輔仁中學 VS 彰化高中
ELTA體育台
youtube直播:緯來:
https://www.youtube.com/watch?v=xg7qvU1YNNM
ELTA:
https://www.youtube.com/watch?v=X0BnexDYy2A
hichannel:
http://hichannel.hinet.net/live.do?id=448
輔仁中學 101年 高中棒球聯賽(軟式組)小組冠軍
全國賽第八名(49隊參賽)
→ 知名校友: 沈玉琳.蔡阿嘎
彰化高中
日前 高中棒球聯賽 彰化高中(當時主力為二年級)以 10:12 小輸輔仁中學,
今日彰化高中陣容仍然以二年級為主, 而板凳區主要由三年級組成.
https://webptt.com/m.aspx?n=bbs/Baseball/M.1417185245.A.B31.html
→ 知名校友: 李昌鈺.任賢齊.浩子
--
※ 發信站: 批踢踢實業坊(ptt.cc), 來自: 211.22.219.163
※ 文章網址: http://webptt.com/m.aspx?n=bbs/Baseball/M.1417244461.A.63B.html
1F:推 iceyang: 彰中人推! 11/29 15:03
2F:推 noyuri1006: 二推~ 11/29 15:06
3F:推 moneychen: 李昌鈺 XD 11/29 15:09
5F:推 magicwu: 頂新魏家也是彰中的唷 11/29 15:13
6F:推 fuhaha: 彰中加油!!! 11/29 15:13
7F:→ sorrycar: 施崇棠 施振榮 彰中捐錢大戶 11/29 15:13
8F:→ hicker: 被搶光了.... 11/29 15:14
9F:→ hicker: 原po明天以後還要貼嗎?? 11/29 15:15
10F:推 kuovsphy: 我大學前後任系主任之校友學校對決... 11/29 15:15
11F:推 kimibear: 輔仁推 11/29 15:15
12F:推 death3000: 彰中人 推 11/29 15:16
13F:推 ss36: 彰中加油!! 11/29 15:16
14F:→ kimibear: 任賢齊讀過輔仁國中部 11/29 15:17
15F:→ kimibear: 所以他是兩校校友XD 11/29 15:17
16F:→ sorrycar: 好懷念那件彰中大奶罩 煞氣的運動服 11/29 15:17
17F:→ hicker: 輔仁中學 跟 輔仁大學 有關係嗎?? 11/29 15:17
18F:→ kimibear: 同一個董事會 11/29 15:17
19F:推 DukeMonkey: 彰中校友推 11/29 15:20
20F:→ hicker: 原po明天以後還要貼嗎?? 11/29 15:20
21F:推 a600tw: 輔中棒球人推!!!!!! 11/29 15:21
22F:推 elefox: 彰中儀隊準備表演中 11/29 15:22
23F:推 Carlifar: 彰中人一定要推的啦!!! 11/29 15:23
24F:推 nk8614: 彰化人推!! 竟然還有儀隊表演 11/29 15:26
25F:推 ChunYuLin: 輔仁學弟加油!! 11/29 15:33
26F:推 iceyang: 彰中 彰中 文教源~~ 11/29 15:34
27F:推 REDBLUEr: "中華民國"隊球衣 11/29 15:36
28F:推 elefox: 輔仁先發是左投 11/29 15:37
29F:推 noyuri1006: 我是希望hicker大貼啦^^ 11/29 15:37
30F:推 altisvitas: 同樓上 11/29 15:38
31F:推 jefftie2000: 肉圓 雞肉飯XD 11/29 15:39
32F:推 ss36: 肉圓vs雞肉飯XDD 11/29 15:39
34F:推 tip790322: 目前 台南球場 中大壢中 對 東勢高工 0 比4 11/29 15:39
35F:推 peteru4: 怎麼不是雞球飯 VS 雞肉飯 11/29 15:39
36F:推 mlb0611: 推REDLUBEr大,這是復古的中華隊的球衣(輔仁中學) 11/29 15:41
37F:推 anti56: 學弟穩住啊!!!!! 11/29 15:42
38F:推 aneaneane: 輔仁加油!小汪老師加油! 11/29 15:42
39F:推 bogy1188: 彰中 11/29 15:42
40F:→ anti56: 小汪永遠娃娃臉~~~~~~~~ 11/29 15:42
41F:推 REDBLUEr: 球衣真正寫過中華民國四個字 不只是中華隊這簡稱 11/29 15:43
42F:推 tip790322: 台南 中大 對 東勢 0比5 一局 11/29 15:44
43F:推 Je1981: 加油!學弟... 11/29 15:45
44F:推 wlin127: 壢中加油 11/29 15:46
45F:推 tip790322: 台南 中大 對 東勢 0比6 一局 11/29 15:47
46F:→ paso: 果然有人問輔中和輔大的關係XD 11/29 15:55
47F:推 REDBLUEr: 輔中和輔大的董事會已經各自獨立運作了 11/29 15:55
48F:推 Ec73Iwai: 彰中投手要挺住QQ 11/29 15:55
49F:推 a600tw: 輔仁中學和輔仁大學都屬聖言會 前輔中校長現為台灣總主教 11/29 15:58
50F:→ a600tw: 兩校的建築風格上有相似 創校初期是同一批人員負責規劃 11/29 15:59
51F:→ a600tw: 小弟讀輔中時 聽說本來輔大要在嘉義!! 但是後來選在新莊 11/29 15:59
52F:推 saint01: 彰中推 11/29 16:00
53F:→ a600tw: 所以該校地變輔中 以高中來說6甲地算不小 11/29 16:00
54F:推 david0605: 推 11/29 16:02
55F:→ REDBLUEr: 建築風格其實有點窄的說明 其實兩個學校 都有歐洲不同 11/29 16:02
56F:→ REDBLUEr: 國家文化的特色建築 尤其是輔大 不同學系的設計不同 11/29 16:02
57F:推 tip790322: 台南 中大 對 東勢 0比7 二局 11/29 16:03
58F:推 sony1256: 喔喔喔!!! 竟然抓到哦!!! 社團的!! 11/29 16:03
59F:→ REDBLUEr: 但都還是有以最早德國為主的風格 11/29 16:03
60F:推 Ec73Iwai: 輔仁捕手是洪中附身喔... 11/29 16:04
61F:推 a600tw: 學弟GJ!!! 11/29 16:05
62F:推 tip790322: 台南 中大 對 東勢 0比8 剛剛差點hr 11/29 16:05
63F:推 tip790322: 台南 中大 對 東勢 0比9 二局結束 11/29 16:09
64F:推 REDBLUEr: 123km/hr K 11/29 16:09
65F:推 a600tw: 汪振元老師娃娃臉 國中就這一張臉 跟陳致遠同班過 11/29 16:10
66F:→ doraelephant: 還蠻強的 社團投到123 11/29 16:10
67F:→ REDBLUEr: 應該打過正式球隊吧 現在這打者也是 11/29 16:11
68F:→ REDBLUEr: 梁如豪:兩套主客場球衣都是中華隊 打起來比較有PowerXD 11/29 16:11
69F:推 Ec73Iwai: 中華隊內戰XD 11/29 16:13
70F:推 HumanBenzene: 125真的滿猛的XD 11/29 16:13
71F:推 alanwang65: 投到125了,單局3K 11/29 16:13
72F:推 wlin127: 東勢總教練林仲秋~前三商全壘打王~東勢打擊應該很強 11/29 16:13
73F:推 channiny: 彰中先發我同學 11/29 16:14
74F:推 abc33211: 哈哈 教啊也太有趣 11/29 16:14
75F:→ REDBLUEr: @Ec73Iwai 球評是指輔中自己有兩套主客場球衣 11/29 16:14
76F:→ alanwang65: 投手看起來穩下來了,接下來得靠打者得分~ 11/29 16:15
77F:→ REDBLUEr: 如果打自家練習賽就是真的內戰了 XDDD 11/29 16:15
78F:推 Ec73Iwai: 喔喔我以為是指彰中頭上的C 11/29 16:15
79F:推 Ricky850920: 壢中加油 (by高三學長心中吶喊) 11/29 16:16
80F:→ REDBLUEr: 捕手真的是洪一中上身 XD 11/29 16:17
81F:推 alanwang65: 這捕手傳得相當好耶~ 11/29 16:18
82F:推 wlin127: 壢中加油!撐過五局就算贏! 11/29 16:20
83F:推 tip790322: 台南 中大 對 東勢 0比9 滿壘殘 三上 11/29 16:20
84F:推 Ec73Iwai: 裁判幫忙擋了一分XD 11/29 16:20
85F:→ Ec73Iwai: 這捕手也不簡單 有點經驗 11/29 16:21
86F:推 alanwang65: 以社團型,這捕手優喔~有傳球又有觀念~ 11/29 16:22
87F:→ aiiueo: 輔大不屬聖言會 輔大是聖言 耶穌 臺灣主教團共管 11/29 16:22
88F:→ aiiueo: 輔中則是聖言會直屬 雖然上頭都是羅馬教廷 11/29 16:23
89F:推 jackyxul4: 彰中校長到現場了! 11/29 16:24
90F:推 anti56: 有種想衝回輔中KGB的衝動!!! 11/29 16:24
91F:推 Ec73Iwai: 彰中三壘手(?)讓我想到鷹俠XDD 帥氣接球然後魔送球 11/29 16:25
92F:→ aiiueo: 反而基隆市的輔大聖心高級中學算是輔仁大學的一部分 11/29 16:25
93F:→ Ec73Iwai: 加油加油 11/29 16:26
94F:→ aiiueo: 輔大聖心跟輔仁大學董事會才是一樣的 11/29 16:26
95F:推 REDBLUEr: 強迫取分 球棒震到自己 XDDD 11/29 16:28
96F:推 tip790322: 台南 中大 對 東勢 0比11 三局未完 11/29 16:29
97F:推 Ec73Iwai: 手受傷 安全第一啊 11/29 16:29
98F:推 alanwang65: 強迫取分耶~XDD 11/29 16:30
99F:推 chiawww: 剛剛那球接的漂亮耶!! 11/29 16:31
100F:推 Ec73Iwai: 輔仁SS差一點就可以當咖啡了 可惜 11/29 16:35
101F:推 REDBLUEr: 變雙殺 XD 11/29 16:36
102F:推 anti56: DP!!!! 11/29 16:36
103F:→ REDBLUEr: 這場輔仁用觀念就打得贏了 嘖嘖 11/29 16:36
104F:推 alanwang65: DP耶~還是沒得分XD 11/29 16:37
105F:推 Ec73Iwai: 輔仁臨場反應技高一籌 佩服 11/29 16:37
106F:推 noyuri1006: 守備真的很重要^^~~~ 11/29 16:37
107F:推 Ec73Iwai: 彰中相對是靠投手在撐比較多 11/29 16:39
108F:→ Ec73Iwai: 才說完就觸身QQ 11/29 16:40
109F:推 abc33211: 這膝蓋會壞吧 11/29 16:42
110F:→ abc33211: 滑壘看了好痛 11/29 16:42
111F:推 tip790322: 台南 中大 對 東勢 0比11 四上結束 11/29 16:42
112F:推 Ec73Iwai: 輔仁的撲接QQ 老話安全第一 11/29 16:43
113F:推 abc33211: 輔仁的加油口號好像LM 11/29 16:45
114F:推 wlin127: 平常似乎都沒練滑壘,教練沒教嗎?超危險的! 11/29 16:45
115F:推 Ec73Iwai: 啊靠 我家附近放鞭炮是怎樣 是躺著選上喔 11/29 16:46
116F:→ abc33211: 彰中開始不穩了 11/29 16:46
117F:推 Ec73Iwai: 投手續投!! 11/29 16:47
118F:推 abc33211: 輔仁7 11/29 16:48
119F:推 Ec73Iwai: 大橘............... 11/29 16:50
120F:推 tip790322: 台南 中大 對 東勢 0比12 四下 11/29 16:50
121F:推 jay1105zz: 推輔仁 加油! 11/29 16:51
122F:推 abc33211: 現在這個打者有比全民運!! 11/29 16:51
123F:→ abc33211: 有點op啊! 11/29 16:51
124F:推 alanwang65: 守備各種漏洞... 11/29 16:53
125F:推 abc33211: 彰中換投,#11 11/29 16:54
126F:→ abc33211: 更正,彰中換#10 11/29 16:55
127F:推 jjxiah: 推輔仁 學弟加油 11/29 16:55
128F:推 Greenmade: 彰中校友推!!!!! 11/29 16:56
129F:推 Ec73Iwai: 輔仁真的不錯 彰中校友還是來讚賞一下 11/29 16:57
130F:推 tip790322: 台南 中大 對 東勢 0比12 五上結束 11/29 17:00
131F:推 Ec73Iwai: 砍球在黑豹旗還是很有用的XDD 11/29 17:01
132F:→ abc33211: 輔仁左外將功贖罪,跑者本來死 11/29 17:03
133F:推 REDBLUEr: 捕手好強 觸殺位置和擋跑者真的很確實 11/29 17:03
134F:→ abc33211: 本壘死 11/29 17:03
135F:推 Ec73Iwai: 捕手強!! 11/29 17:04
136F:推 elefox: 輔仁捕手真的關鍵 彰中校友現場推 11/29 17:06
137F:推 tip790322: 台南 中大 對 東勢 0比12 五局結束 11/29 17:06
138F:推 abc33211: 謝謝tip 11/29 17:08
139F:推 abc33211: 下雨了!? 11/29 17:11
140F:推 Ec73Iwai: 砍到壞球噴到休息室 11/29 17:12
141F:推 alanwang65: 一壘手搞笑XDD 11/29 17:14
142F:推 tip790322: 台南 中大 對 東勢 0比12 五局結束 11/29 17:14
143F:推 bignoob: 彰中跟著跳 11/29 17:15
144F:→ bignoob: 輔仁也跟著跳 11/29 17:16
146F:→ elefox: 輔仁只有一個出來跳 11/29 17:17
147F:推 tip790322: 台南 中大 對 東勢 0比13 六局下 11/29 17:19
148F:推 tip790322: 台南 中大 對 東勢 0比15 比賽結束 六局ko 11/29 17:28
149F:推 abc33211: 謝謝tip大 11/29 17:28
150F:推 Ricky850920: 謝謝tip 11/29 17:29
151F:推 abc33211: 盜本壘失敗 11/29 17:37
152F:推 elefox: 想三盜壘XD 本壘死 11/29 17:37
153F:→ abc33211: 不過怎麼沒滑壘@@ 11/29 17:37
154F:推 yyc1217: 想盜本壘XDDD 11/29 17:37
155F:推 REDBLUEr: 轉身離開 有球傳不出來~ XD 11/29 17:46
156F:推 yyc1217: 輔仁的內野守備中邪了嗎= = 11/29 17:47
157F:推 elefox: 破蛋!!! 11/29 17:50
158F:推 essolo: 彰中破蛋了@o@ 11/29 17:51
159F:→ essolo: 8:4了!! 11/29 17:53
160F:推 yyc1217: 清壘的二壘安打 11/29 17:53
161F:推 yugin900524: 清壘啦!! 11/29 17:53
162F:推 elefox: 差三分了!!! 11/29 17:55
163F:推 yyc1217: 跑壘可惜了 難得大局的說 11/29 17:55
164F:推 Ec73Iwai: !!!!!! 11/29 17:57
165F:推 Loki1230: 1122輔仁高中校友推 11/29 17:58
166F:推 yyc1217: 三上三下 11/29 18:03
167F:推 abc33211: 歐霸,3B 11/29 18:13
168F:推 abc33211: 輔仁9 11/29 18:15
169F:→ abc33211: 輔仁10 11/29 18:16
170F:推 Sheng98: 麥可喬登附身 11/29 18:20
171F:推 elefox: 彰中逆轉吧!!!! 11/29 18:21
172F:推 abc33211: 羅拿度又來啦 11/29 18:25
173F:推 abc33211: 彰化高中逆轉失敗 5:10輔仁 11/29 18:29
174F:推 barry00561: 不離不棄 是我學弟 11/29 20:59
175F:推 mosoker: 不離不棄 是我學弟 11/29 21:33
176F:推 pase139: 最近嘉義縣市的球隊成績都不俗 11/29 23:35